Vienna, OH

12:13 AM EST on February 07, 2016 (GMT -0500)
Youngstown-Warren Regional

Weather History for KYNG - April, 2013

Change the Weather History Date:

Thursday, April 11, 2013

  Actual Average Record
Temperature  
Mean Temperature 49 °F 47 °F  
Max Temperature 55 °F 57 °F 82 °F (1977)
Min Temperature 43 °F 37 °F 22 °F (1970)
Degree Days  
Heating Degree Days 16 18  
Month to date heating degree days 227 222  
Since 1 July heating degree days 5643 5746  
Cooling Degree Days 0 0  
Month to date cooling degree days 0 0  
Year to date cooling degree days 0 1  
Moisture  
Dew Point 47 °F    
Average Humidity 92    
Maximum Humidity 100    
Minimum Humidity 83    
Precipitation  
Precipitation 0.25 in 0.11 in 0.86 in (1954)
Month to date precipitation 1.42 1.27  
Year to date precipitation 8.43 8.91  
Snow  
Snow 0.00 in 0.20 in - ()
Month to date snowfall 0.6 1.9  
Since 1 July snowfall 80.9 61.6  
Snow Depth 0.00 in    
Sea Level Pressure  
Sea Level Pressure 29.81 in    
Wind  
Wind Speed 9 mph (NE)    
Max Wind Speed 22 mph    
Max Gust Speed 29 mph    
Visibility 4 miles    
Events Fog , Rain , Thunderstorm    
T = Trace of Precipitation, MM = Missing Value Source: NWS Daily Summary

Daily Weather History Graph

Daily Weather History Graph

Search for Another Location

Airport or City:

Trip Planner

Search our weather history database for the weather conditions in past years. The results will help you decide how hot, cold, wet, or windy it might be!

Date:

Astronomy

Apr. 11, 2013 Rise Set
Actual Time 6:49 AM EDT 7:58 PM EDT
Civil Twilight 6:20 AM EDT 8:27 PM EDT
Nautical Twilight 5:46 AM EDT 9:01 PM EDT
Astronomical Twilight 5:11 AM EDT 9:37 PM EDT
Moon 7:18 AM EDT (4/11) 9:32 PM EDT (4/11)
Length of Visible Light 14h 06m
Length of Day
13h 09m
New Moon, 2% of the Moon is Illuminated
Apr 11
New Moon
Apr 18
First Quarter
Apr 25
Full
May 2
Last Quarter
May 9
New

Hourly Weather History & Observations

Time (EDT) Temp. Windchill Dew Point Humidity Pressure Visibility Wind Dir Wind Speed Gust Speed Precip Events Conditions
12:51 AM 46.0 °F 42.5 °F 44.1 °F 93% 29.85 in 1.8 mi NE 6.9 mph - 0.04 in Rain Rain
1:32 AM 44.6 °F 40.2 °F 42.8 °F 93% 29.92 in 1.8 mi West 8.1 mph - 0.04 in Rain , Thunderstorm Thunderstorms and Rain
1:51 AM 44.1 °F 42.5 °F 43.0 °F 96% 29.92 in 1.8 mi NW 3.5 mph - 0.13 in Rain Heavy Rain
2:51 AM 45.0 °F 42.6 °F 44.1 °F 97% 29.87 in 1.8 mi NNE 4.6 mph - 0.12 in Rain Rain
2:56 AM 44.6 °F 43.1 °F 44.6 °F 100% 29.87 in 2.5 mi North 3.5 mph - 0.01 in Rain Light Rain
3:51 AM 45.0 °F 42.6 °F 44.1 °F 97% 29.86 in 2.0 mi ENE 4.6 mph - 0.01 in   Overcast
4:30 AM 44.6 °F 40.7 °F 44.6 °F 100% 29.83 in 1.8 mi NE 6.9 mph - 0.00 in Rain Light Rain
4:51 AM 45.0 °F 41.2 °F 44.1 °F 97% 29.82 in 1.8 mi NE 6.9 mph - 0.00 in   Overcast
5:51 AM 45.0 °F 41.8 °F 43.0 °F 93% 29.83 in 1.5 mi NNE 5.8 mph - N/A   Overcast
6:27 AM 44.6 °F 42.2 °F 42.8 °F 93% 29.82 in 0.8 mi NNE 4.6 mph - N/A Fog Overcast
6:51 AM 44.1 °F - 44.1 °F 100% 29.83 in 0.5 mi Calm Calm - N/A Fog Fog
7:02 AM 44.6 °F - 44.6 °F 100% 29.83 in 0.2 mi Calm Calm - N/A Fog Fog
7:51 AM 45.0 °F - 45.0 °F 100% 29.85 in 0.1 mi Calm Calm - N/A Fog Fog
8:38 AM 46.4 °F 44.3 °F 46.4 °F 100% 29.84 in 0.1 mi North 4.6 mph - N/A Fog Fog
8:51 AM 46.0 °F 41.0 °F 45.0 °F 96% 29.87 in 0.1 mi NW 10.4 mph 20.7 mph N/A Fog Fog
9:28 AM 42.8 °F 37.5 °F 42.8 °F 100% 29.88 in 0.1 mi North 9.2 mph 19.6 mph N/A Fog Fog
9:51 AM 44.1 °F 39.0 °F 44.1 °F 100% 29.87 in 0.1 mi NNE 9.2 mph - N/A Fog Fog
10:51 AM 45.0 °F 41.8 °F 45.0 °F 100% 29.88 in 0.2 mi North 5.8 mph - N/A Fog Fog
11:44 AM 46.4 °F - 46.4 °F 100% 29.86 in 0.5 mi Calm Calm - N/A Fog Fog
11:51 AM 48.0 °F - 46.9 °F 96% 29.87 in 0.5 mi ESE 4.6 mph - N/A Fog Fog
12:23 PM 48.2 °F - 48.2 °F 100% 29.83 in 1.0 mi ESE 4.6 mph - N/A   Overcast
12:39 PM 50.0 °F - 48.2 °F 94% 29.81 in 2.0 mi SE 9.2 mph - N/A   Overcast
12:51 PM 51.1 °F - 50.0 °F 96% 29.83 in 2.0 mi East 5.8 mph - N/A   Overcast
1:40 PM 53.6 °F - 51.8 °F 94% 29.80 in 3.0 mi NNW 9.2 mph - N/A   Overcast
1:51 PM 52.0 °F - 50.0 °F 93% 29.82 in 3.0 mi NNW 12.7 mph - N/A   Overcast
2:51 PM 50.0 °F - 48.0 °F 93% 29.84 in 3.0 mi NE 11.5 mph - N/A   Overcast
3:44 PM 51.8 °F - 48.2 °F 88% 29.78 in 3.0 mi East 9.2 mph - N/A   Overcast
3:51 PM 52.0 °F - 48.9 °F 89% 29.79 in 3.0 mi East 10.4 mph - N/A   Overcast
4:38 PM 53.6 °F - 51.8 °F 94% 29.77 in 10.0 mi North 6.9 mph - 0.00 in Rain Light Rain
4:51 PM 54.0 °F - 51.1 °F 90% 29.77 in 10.0 mi North 8.1 mph - 0.00 in Rain Light Rain
5:34 PM 53.6 °F - 50.0 °F 88% 29.77 in 10.0 mi North 6.9 mph - 0.00 in   Overcast
5:51 PM 54.0 °F - 50.0 °F 86% 29.78 in 10.0 mi NNE 6.9 mph - 0.00 in   Overcast
6:19 PM 53.6 °F - 50.0 °F 88% 29.75 in 10.0 mi ENE 10.4 mph - N/A   Overcast
6:51 PM 54.0 °F - 50.0 °F 86% 29.77 in 10.0 mi ENE 6.9 mph - N/A   Overcast
7:51 PM 53.1 °F - 48.9 °F 86% 29.73 in 10.0 mi East 12.7 mph - N/A   Overcast
8:51 PM 52.0 °F - 48.0 °F 86% 29.72 in 10.0 mi East 16.1 mph - N/A   Overcast
9:51 PM 51.1 °F - 46.9 °F 86% 29.68 in 10.0 mi East 16.1 mph - N/A   Overcast
10:51 PM 50.0 °F - 46.0 °F 86% 29.64 in 10.0 mi East 13.8 mph - N/A   Overcast
11:51 PM 50.0 °F - 46.0 °F 86% 29.60 in 10.0 mi ESE 17.3 mph 25.3 mph N/A   Overcast